This demonstration page uses our WeatherBlox Daily Observations layout. Learn more.

Left ArrowRight Arrow

Hourly Observations for August 2, 2020

Temp ( °F °C ) Dew Point ( °F °C ) Humidity (%) Winds ( mph kmh ) Pressure ( in mb ) Visibility ( mi km ) Precip ( " mm )
12:15 am 00:15 Cloudy 68 20 68 20 100 100 W 6 9 29.77 1008 5 8.0467 N/A
12:35 am 00:35 Cloudy 68 20 68 20 100 100 WNW 5 7 29.77 1008 4 6.43736 N/A
12:55 am 00:55 Cloudy 68 20 68 20 100 100 W 3 6 29.76 1008 2.5 4.02335 N/A
1:15 am 01:15 Cloudy 68 20 68 20 100 100 W 7 11 29.77 1008 1.75 2.816345 N/A
1:35 am 01:35 Cloudy 68 20 68 20 100 100 WNW 12 19 29.76 1008 2 3.21868 N/A
1:55 am 01:55 Cloudy 66 19 66 19 100 100 W 10 17 29.76 1008 4 6.43736 N/A
2:15 am 02:15 Cloudy 66 19 66 19 100 100 WNW 10 17 29.77 1008 10 16.0934 N/A
2:35 am 02:35 Cloudy 64 18 64 18 100 100 WNW 10 17 29.77 1008 3 4.82802 N/A
2:55 am 02:55 Cloudy 64 18 64 18 100 100 WNW 12 19 29.77 1008 3 4.82802 N/A
3:15 am 03:15 Cloudy 64 18 64 18 100 100 WNW 13 20 29.77 1008 4 6.43736 N/A
3:35 am 03:35 Cloudy 63 17 63 17 100 100 WNW 15 24 29.78 1008 10 16.0934 N/A
3:55 am 03:55 Cloudy 63 17 63 17 100 100 WNW 10 17 29.78 1008 10 16.0934 N/A
4:15 am 04:15 Cloudy 63 17 63 17 100 100 W 12 19 29.78 1008 10 16.0934 N/A
4:35 am 04:35 Cloudy 63 17 63 17 100 100 W 12 19 29.79 1009 10 16.0934 N/A
4:55 am 04:55 Cloudy 63 17 63 17 100 100 WNW 10 17 29.8 1009 10 16.0934 N/A
5:15 am 05:15 Cloudy 63 17 63 17 100 100 WNW 12 19 29.8 1009 7 11.26538 N/A
5:35 am 05:35 Cloudy 63 17 63 17 100 100 W 10 17 29.81 1009 7 11.26538 N/A
5:55 am 05:55 Cloudy 63 17 63 17 100 100 W 13 20 29.82 1010 4 6.43736 N/A
6:15 am 06:15 Cloudy 61 16 61 16 100 100 W 10 17 29.83 1010 5 8.0467 N/A
6:35 am 06:35 Cloudy 61 16 61 16 100 100 W 12 19 29.84 1011 7 11.26538 N/A
6:55 am 06:55 Cloudy 61 16 61 16 100 100 W 13 20 29.86 1011 2 3.21868 N/A
7:15 am 07:15 Cloudy 63 17 63 17 100 100 W 10 17 29.86 1011 1.75 2.816345 N/A
7:35 am 07:35 Cloudy 63 17 63 17 100 100 W 13 20 29.87 1011 2 3.21868 N/A
7:55 am 07:55 Cloudy 63 17 63 17 100 100 W 12 19 29.88 1012 2.5 4.02335 N/A
8:15 am 08:15 Cloudy 63 17 63 17 100 100 W 13 20 29.88 1012 2 3.21868 N/A
8:35 am 08:35 Cloudy 63 17 63 17 100 100 W 10 17 29.89 1012 2.5 4.02335 N/A
8:55 am 08:55 Cloudy 63 17 63 17 100 100 W 8 13 29.9 1012 7 11.26538 N/A
9:15 am 09:15 Cloudy 63 17 63 17 100 100 WSW 8 13 29.91 1013 10 16.0934 N/A
9:35 am 09:35 Cloudy 63 17 63 17 100 100 W 9 15 29.91 1013 10 16.0934 N/A
9:55 am 09:55 Cloudy 64 18 64 18 100 100 W 8 13 29.9 1013 10 16.0934 N/A
10:15 am 10:15 Cloudy 64 18 64 18 100 100 W 7 11 29.9 1013 10 16.0934 N/A
10:35 am 10:35 Cloudy 66 19 66 19 100 100 WSW 8 13 29.91 1013 10 16.0934 N/A
10:55 am 10:55 Cloudy 66 19 66 19 100 100 WSW 8 13 29.91 1013 10 16.0934 N/A
11:15 am 11:15 Cloudy 68 20 68 20 100 100 WSW 6 9 29.91 1013 10 16.0934 N/A
11:35 am 11:35 Mostly Cloudy 72 22 70 21 94 94 SW 8 13 29.9 1013 10 16.0934 N/A
11:55 am 11:55 Mostly Cloudy 73 23 70 21 89 89 WSW 13 20 29.9 1012 10 16.0934 N/A
12:15 pm 12:15 Mostly Cloudy 73 23 72 22 94 94 WSW 10 17 29.9 1012 10 16.0934 N/A
12:35 pm 12:35 Mostly Cloudy 73 23 70 21 89 89 WSW 10 17 29.9 1012 10 16.0934 N/A
12:56 pm 12:56 Cloudy 73 23 70 21 89 89 WSW 7 11 29.9 1012 10 16.0934 N/A
1:15 pm 13:15 Mostly Cloudy 75 24 72 22 89 89 WSW 9 15 29.9 1012 10 16.0934 N/A
1:35 pm 13:35 Mostly Cloudy 75 24 72 22 89 89 WSW 10 17 29.9 1012 10 16.0934 N/A
1:55 pm 13:55 Cloudy 75 24 70 21 83 83 W 9 15 29.91 1013 10 16.0934 N/A
2:15 pm 14:15 Cloudy 77 25 72 22 83 83 SW 9 15 29.9 1013 10 16.0934 N/A
2:35 pm 14:35 Mostly Cloudy 79 26 72 22 79 79 WSW 9 15 29.89 1012 10 16.0934 N/A
2:55 pm 14:55 Mostly Cloudy 77 25 72 22 83 83 W 9 15 29.89 1012 10 16.0934 N/A
3:15 pm 15:15 Mostly Cloudy 77 25 70 21 79 79 W 6 9 29.89 1012 10 16.0934 N/A
3:35 pm 15:35 Cloudy 77 25 70 21 79 79 WSW 8 13 29.89 1012 10 16.0934 N/A
3:55 pm 15:55 Cloudy 77 25 72 22 83 83 SW 10 17 29.89 1012 10 16.0934 N/A
4:15 pm 16:15 Mostly Cloudy 77 25 70 21 79 79 SW 9 15 29.89 1012 10 16.0934 N/A
4:35 pm 16:35 Cloudy 75 24 70 21 83 83 S 8 13 29.9 1012 10 16.0934 N/A
4:55 pm 16:55 Mostly Cloudy 79 26 70 21 74 74 SSW 5 7 29.88 1012 10 16.0934 N/A
5:15 pm 17:15 Partly Cloudy 75 24 70 21 83 83 SW 7 11 29.89 1012 10 16.0934 N/A
5:35 pm 17:35 Mostly Cloudy 77 25 70 21 79 79 SW 8 13 29.88 1012 10 16.0934 N/A
5:55 pm 17:55 Mostly Cloudy 77 25 70 21 79 79 Calm 29.88 1012 10 16.0934 N/A
6:15 pm 18:15 Mostly Cloudy 79 26 70 21 74 74 SSW 7 11 29.88 1012 10 16.0934 N/A
6:35 pm 18:35 Partly Cloudy 79 26 70 21 74 74 SW 7 11 29.88 1012 10 16.0934 N/A
6:55 pm 18:55 Sunny 77 25 68 20 74 74 SSW 8 13 29.88 1012 10 16.0934 N/A
7:15 pm 19:15 Partly Cloudy 77 25 68 20 74 74 SW 8 13 29.89 1012 10 16.0934 N/A
7:35 pm 19:35 Partly Cloudy 73 23 70 21 89 89 S 7 11 29.9 1012 10 16.0934 N/A
7:55 pm 19:55 Mostly Cloudy 73 23 72 22 94 94 SW 9 15 29.91 1013 10 16.0934 N/A
8:15 pm 20:15 Cloudy 73 23 70 21 89 89 SSW 8 13 29.91 1013 10 16.0934 N/A
8:35 pm 20:35 Cloudy 73 23 70 21 89 89 SW 7 11 29.91 1013 10 16.0934 N/A
8:55 pm 20:55 Mostly Cloudy 73 23 70 21 89 89 SW 7 11 29.92 1013 10 16.0934 N/A
9:15 pm 21:15 Cloudy 72 22 70 21 94 94 SW 5 7 29.93 1014 10 16.0934 N/A
9:35 pm 21:35 Cloudy 70 21 70 21 100 100 Calm 29.94 1014 10 16.0934 N/A
9:55 pm 21:55 Mostly Cloudy 68 20 68 20 100 100 Calm 29.94 1014 10 16.0934 N/A
10:15 pm 22:15 Partly Cloudy 68 20 68 20 100 100 Calm 29.95 1014 10 16.0934 N/A
10:35 pm 22:35 Mostly Cloudy 66 19 66 19 100 100 Calm 29.96 1015 10 16.0934 N/A
10:55 pm 22:55 Cloudy 68 20 68 20 100 100 SSE 5 7 29.96 1014 10 16.0934 N/A
11:15 pm 23:15 Cloudy 68 20 68 20 100 100 SSE 5 7 29.96 1014 10 16.0934 N/A
11:35 pm 23:35 Cloudy 66 19 66 19 100 100 Calm 29.97 1015 10 16.0934 N/A
11:55 pm 23:55 Mostly Cloudy 68 20 68 20 100 100 Calm 29.97 1015 10 16.0934 N/A

Powered by AerisWeather